TimeCST,TemperatureF,Dew PointF,Humidity,Sea Level PressureIn,VisibilityMPH,Wind Direction,Wind SpeedMPH,Gust SpeedMPH,PrecipitationIn,Events,Conditions,WindDirDegrees,DateUTC
12:53 AM,37.0,33.1,86,30.34,10.0,ENE,4.6,-,N/A,,Overcast,70,2013-01-05 06:53:00
1:53 AM,37.9,33.1,83,30.35,10.0,Calm,Calm,-,N/A,,Overcast,0,2013-01-05 07:53:00
2:53 AM,37.9,33.1,83,30.36,10.0,Calm,Calm,-,N/A,,Overcast,0,2013-01-05 08:53:00
3:53 AM,39.0,34.0,82,30.36,10.0,Calm,Calm,-,N/A,,Overcast,0,2013-01-05 09:53:00
4:53 AM,37.9,34.0,86,30.36,10.0,Calm,Calm,-,N/A,,Overcast,0,2013-01-05 10:53:00
5:53 AM,37.9,34.0,86,30.36,10.0,Calm,Calm,-,N/A,,Overcast,0,2013-01-05 11:53:00
6:53 AM,37.9,34.0,86,30.36,10.0,Calm,Calm,-,N/A,,Overcast,0,2013-01-05 12:53:00
7:53 AM,39.0,35.1,86,30.36,9.0,ESE,3.5,-,0.00,,Overcast,110,2013-01-05 13:53:00
8:53 AM,39.9,34.0,79,30.35,10.0,East,3.5,-,N/A,,Overcast,90,2013-01-05 14:53:00
9:53 AM,43.0,35.1,74,30.35,9.0,Calm,Calm,-,N/A,,Overcast,0,2013-01-05 15:53:00
10:53 AM,45.0,34.0,65,30.34,9.0,Calm,Calm,-,N/A,,Overcast,0,2013-01-05 16:53:00
11:53 AM,46.9,34.0,61,30.30,10.0,South,9.2,-,N/A,,Overcast,170,2013-01-05 17:53:00
12:53 PM,48.0,35.1,61,30.27,10.0,SW,6.9,-,N/A,,Overcast,220,2013-01-05 18:53:00
1:53 PM,48.0,35.1,61,30.24,10.0,Variable,5.8,-,N/A,,Overcast,0,2013-01-05 19:53:00
2:53 PM,48.9,35.1,59,30.23,10.0,SSW,6.9,-,N/A,,Overcast,200,2013-01-05 20:53:00
3:53 PM,48.9,35.1,59,30.24,10.0,Calm,Calm,-,N/A,,Overcast,0,2013-01-05 21:53:00
4:53 PM,48.9,36.0,61,30.25,10.0,SSE,4.6,-,N/A,,Overcast,160,2013-01-05 22:53:00
5:53 PM,46.0,36.0,68,30.24,10.0,SSE,3.5,-,N/A,,Scattered Clouds,150,2013-01-05 23:53:00
6:53 PM,42.1,36.0,79,30.26,10.0,Calm,Calm,-,N/A,,Overcast,0,2013-01-06 00:53:00
7:53 PM,37.9,35.1,89,30.26,10.0,Calm,Calm,-,N/A,,Mostly Cloudy,0,2013-01-06 01:53:00
8:53 PM,34.0,32.0,92,30.28,2.5,Calm,Calm,-,N/A,,Clear,0,2013-01-06 02:53:00
9:07 PM,33.1,33.1,100,30.28,5.0,Calm,Calm,-,N/A,,Clear,0,2013-01-06 03:07:00
9:40 PM,33.1,32.0,96,30.28,1.8,Calm,Calm,-,N/A,,Mostly Cloudy,0,2013-01-06 03:40:00
9:53 PM,32.0,30.9,96,30.28,3.0,Calm,Calm,-,N/A,,Mostly Cloudy,0,2013-01-06 03:53:00
10:14 PM,33.1,32.0,96,30.28,1.5,Calm,Calm,-,N/A,,Partly Cloudy,0,2013-01-06 04:14:00
10:21 PM,33.1,32.0,96,30.28,0.2,Calm,Calm,-,N/A,Fog,Fog,0,2013-01-06 04:21:00
10:29 PM,32.0,30.9,96,30.28,0.2,Calm,Calm,-,N/A,Fog,Fog,0,2013-01-06 04:29:00
10:53 PM,32.0,30.0,92,30.29,0.5,Calm,Calm,-,N/A,Fog,Fog,0,2013-01-06 04:53:00
11:10 PM,30.0,30.0,100,30.29,0.2,Calm,Calm,-,N/A,Fog,Light Freezing Fog,0,2013-01-06 05:10:00
11:17 PM,30.9,30.0,96,30.29,0.2,Calm,Calm,-,N/A,Fog,Light Freezing Fog,0,2013-01-06 05:17:00
11:53 PM,30.0,28.9,96,30.30,0.2,Calm,Calm,-,N/A,Fog,Light Freezing Fog,0,2013-01-06 05:53:00